Regional Weather Roundup
Issued by NWS

Home | Current Version | Previous Version | Graphics & Text | Print | Product List | Glossary On
Versions: 1 2 3 4 5 6 7 8 9 10 11 12 13 14 15 16 17 18 19 20 21 22 23 24 25 26 27 28 29 30 31 32 33 34 35 36 37 38 39 40 41 42 43 44 45 46 47 48 49 50
000
ASUS43 KFSD 011110
RWRSD

WEATHER ROUNDUP FOR SOUTH DAKOTA
NATIONAL WEATHER SERVICE SIOUX FALLS SD
600 AM CDT TUE SEP 01 2015

NOTE: "FAIR" INDICATES FEW OR NO CLOUDS BELOW 12,000 FEET WITH NO
SIGNIFICANT WEATHER AND/OR OBSTRUCTIONS TO VISIBILITY.


SDZ001>005-009-010-012>017-011200-
NORTHWEST AND NORTH CENTRAL SOUTH DAKOTA

CITY           SKY/WX    TMP DP  RH WIND       PRES   REMARKS
BUFFALO          N/A     56  54  93 SE6       29.83F
FAITH            N/A     60  56  86 SE8       29.87
MOBRIDGE       CLEAR     57  57 100 SE3       29.86S
$$

SDZ012>016-024>037-041>051-057-063-072>074-011200-
SOUTHWEST AND SOUTH CENTRAL SOUTH DAKOTA

CITY           SKY/WX    TMP DP  RH WIND       PRES   REMARKS
RAPID CTY ARPT CLEAR     53  52  96 W3        29.89F
PIERRE         PTCLDY    58  57  97 E3        29.85F
CUSTER         CLEAR     56  43  61 SW3       30.03F
PHILIP         PTCLDY    59  58  96 E3        29.86F
PINE RIDGE     PTCLDY    60  51  72 NW5       29.92F
WINNER         FAIR      63  60  90 NE3       29.87F
$$

SDZ004>011-016>023-039-040-011200-
NORTHEAST SOUTH DAKOTA

CITY           SKY/WX    TMP DP  RH WIND       PRES   REMARKS
ABERDEEN       FOG       57  56  96 CALM      29.90R VSB 1/4
WATERTOWN      CLOUDY    67  64  90 NE5       29.90F
BROOKINGS      CLOUDY    68  64  88 E7        29.91S
SISSETON         N/A     61  60  97 CALM      29.89S
$$

SDZ017-020-022-023-036>040-048>070-011200-
SOUTHEAST SOUTH DAKOTA

CITY           SKY/WX    TMP DP  RH WIND       PRES   REMARKS
SIOUX FALLS    CLOUDY    69  66  90 E6        29.89S
HURON          CLOUDY    62  62 100 N6        29.86F
CHAMBERLAIN    MOCLDY    60  60  99 CALM      29.87F
MITCHELL       CLOUDY    65  64  97 NW3       29.87S
YANKTON        MOCLDY    66  64  94 E6        29.85F
$$

ABBREVIATIONS USED IN REMARKS
   TC - TEMPERATURE IN CELSIUS
  WCI - WIND CHILL INDEX
   HX - HEAT INDEX
  VSB - VISIBILITY



USA.gov is the U.S. government's official web portal to all federal, state and local government web resources and services.